Weather History for Pope Field Airport, NC

Change the Weather History Date:

Tuesday, May 14, 2013

  Actual Average Record
Temperature  
Mean Temperature 58 °F -  
Max Temperature 73 °F 81 °F 92 °F (1982)
Min Temperature 42 °F 58 °F 42 °F (2013)
Degree Days  
Heating Degree Days 8    
Growing Degree Days 8 (Base 50)    
Moisture  
Dew Point 38 °F    
Average Humidity 48    
Maximum Humidity 88    
Minimum Humidity 25    
Precipitation  
Precipitation 0.00 in - - ()
Sea Level Pressure  
Sea Level Pressure 30.20 in    
Wind  
Wind Speed 4 mph (WSW)    
Max Wind Speed 13 mph    
Max Gust Speed 17 mph    
Visibility 10 miles    
Events      
Averages and records for this station are not official NWS values.
T = Trace of Precipitation, MM = Missing Value Source: NWS Daily Summary

Daily Weather History Graph

Daily Weather History Graph

Search for Another Location

Airport:

Trip Planner

Search our weather history database for the weather conditions in past years. The results will help you decide how hot, cold, wet, or windy it might be!

Date:

Astronomy

May. 14, 2013 Rise Set
Actual Time 6:12 AM EDT 8:12 PM EDT
Civil Twilight 5:44 AM EDT 8:40 PM EDT
Nautical Twilight 5:10 AM EDT 9:14 PM EDT
Astronomical Twilight 4:33 AM EDT 9:51 PM EDT
Moon 9:50 AM EDT (5/14) No Moon Set
Length of Visible Light 14h 56m
Length of Day
13h 59m
Waxing Crescent, 19% of the Moon is Illuminated
May 14
Waxing Crescent
May 18
First Quarter
May 25
Full
May 31
Last Quarter
Jun 8
New

Hourly Weather History & Observations

Time (EDT) Temp. Windchill Dew Point Humidity Pressure Visibility Wind Dir Wind Speed Gust Speed Precip Events Conditions
12:58 AM 52.0 °F - 39.7 °F 63% 30.20 in 10.0 mi Calm Calm - N/A   Clear
1:58 AM 48.0 °F - 39.7 °F 73% 30.20 in 10.0 mi NE 5.8 mph - N/A   Clear
2:58 AM 46.8 °F - 40.3 °F 78% 30.20 in 10.0 mi Calm Calm - N/A   Clear
3:58 AM 44.4 °F - 39.9 °F 84% 30.21 in 10.0 mi NNE 2.3 mph - N/A   Clear
4:58 AM 42.4 °F 40.7 °F 38.3 °F 85% 30.22 in 10.0 mi West 3.5 mph - N/A   Clear
5:58 AM 42.3 °F - 38.5 °F 86% 30.23 in 10.0 mi West 2.3 mph - N/A   Clear
6:58 AM 42.3 °F - 39.0 °F 88% 30.25 in 10.0 mi WSW 2.3 mph - N/A   Clear
7:58 AM 48.9 °F - 40.6 °F 73% 30.27 in 10.0 mi Variable 2.3 mph - N/A   Clear
8:58 AM 55.6 °F - 39.4 °F 55% 30.28 in 10.0 mi East 4.6 mph - N/A   Clear
9:58 AM 59.2 °F - 35.8 °F 42% 30.27 in 10.0 mi ENE 2.3 mph - N/A   Clear
10:58 AM 63.0 °F - 34.2 °F 34% 30.27 in 10.0 mi Variable 1.2 mph - N/A   Clear
11:55 AM 66.2 °F - 35.6 °F 32% 30.26 in 10.0 mi NW 5.8 mph - N/A   Clear
12:55 PM 67.5 °F - 34.0 °F 29% 30.25 in 10.0 mi Variable 5.8 mph - N/A   Clear
12:58 PM 67.5 °F - 34.0 °F 29% 30.25 in 10.0 mi NNW 4.6 mph - N/A   Clear
1:58 PM 69.8 °F - 34.2 °F 27% 30.21 in 10.0 mi West 8.1 mph - N/A   Clear
2:58 PM 71.8 °F - 36.0 °F 27% 30.19 in 10.0 mi Variable 6.9 mph 16.1 mph N/A   Clear
3:58 PM 72.3 °F - 36.1 °F 27% 30.15 in 10.0 mi WSW 8.1 mph 17.3 mph N/A   Clear
4:58 PM 73.2 °F - 35.8 °F 26% 30.14 in 10.0 mi West 6.9 mph 16.1 mph N/A   Clear
5:58 PM 73.4 °F - 35.6 °F 25% 30.14 in 10.0 mi SW 12.7 mph - N/A   Clear
6:58 PM 72.3 °F - 37.0 °F 28% 30.13 in 10.0 mi West 10.4 mph - N/A   Clear
7:58 PM 68.9 °F - 38.8 °F 33% 30.12 in 10.0 mi SW 10.4 mph - N/A   Clear
8:58 PM 68.0 °F - 40.8 °F 37% 30.13 in 10.0 mi SSW 6.9 mph - N/A   Clear
9:58 PM 66.6 °F - 40.3 °F 38% 30.12 in 10.0 mi SSW 8.1 mph - N/A   Clear
10:58 PM 64.8 °F - 40.5 °F 41% 30.13 in 10.0 mi SW 10.4 mph - N/A   Clear
11:58 PM 62.6 °F - 43.0 °F 49% 30.10 in 10.0 mi SSW 9.2 mph - N/A   Clear